Location: Newark
(41.0400°S, 62.7845°W)
Time: 08:18:29
(UTC+00:00)

CUTE 1.7 + AOD 2 - Visible Passes

Search period start: 29 January 2022 00:00
Search period end: 08 February 2022 00:00
Orbit: 592 x 609 km, 97.6° (Epoch: 28 January)

Date Brightness Start Highest point End Pass type
(mag) Time Alt. Az. Time Alt. Az. Time Alt. Az.
29 Jan ? 06:11:26 10° E 06:13:44 14° ESE 06:16:03 10° SSE visible
29 Jan ? 07:45:39 15° N 07:49:01 54° W 07:53:15 10° SSW visible
30 Jan ? 06:22:01 10° ENE 06:25:00 19° ESE 06:27:59 10° SSE visible
30 Jan ? 07:57:18 15° NNW 08:00:26 39° W 08:04:31 10° SSW visible
31 Jan ? 06:32:50 10° ENE 06:36:17 24° ESE 06:39:45 10° SSE visible
31 Jan ? 08:08:57 15° NNW 08:11:53 30° W 08:15:41 10° SW visible
01 Feb ? 06:43:49 10° NE 06:47:35 31° ESE 06:51:23 10° S visible
01 Feb ? 08:20:36 13° NW 08:23:20 22° W 08:26:45 10° SW visible
02 Feb ? 06:55:28 13° NE 06:58:54 41° ESE 07:02:57 10° S visible
02 Feb ? 08:32:14 11° NW 08:34:49 17° W 08:37:39 10° SW visible
03 Feb ? 07:07:07 17° NNE 07:10:15 55° ESE 07:14:28 10° S visible
03 Feb ? 08:44:25 10° WNW 08:46:19 13° W 08:48:13 10° WSW visible
04 Feb ? 07:18:45 21° NNE 07:21:35 75° ESE 07:25:54 10° S visible
05 Feb ? 07:30:24 24° N 07:32:58 81° WNW 07:37:17 10° SSW visible
06 Feb ? 06:07:10 10° E 06:09:08 13° ESE 06:11:05 10° SE visible
06 Feb ? 07:42:02 25° N 07:44:21 60° W 07:48:37 10° SSW visible
07 Feb ? 06:17:37 10° ENE 06:20:22 17° ESE 06:23:07 10° SSE visible
07 Feb ? 07:53:41 25° NNW 07:55:45 44° W 07:59:53 10° SSW visible
